| time (UTC) | temp C | wind direction | speed KPH | gust KPH | rain 1hr cm | rain 24hr cm | rain mn cm | humidity % | barometer mb |
| 20260504081536 | 10 | 360 | 24.1 | 40.2 | 0.00 | 0.00 | 0.00 | 51 | 1014.3 |
| 20260504044536 | 12 | 40 | 12.9 | 20.9 | 0.00 | 0.03 | 0.00 | 39 | 1008.0 |
| 20260504043037 | 13 | 360 | 17.7 | 22.5 | 0.00 | 0.03 | 0.00 | 38 | 1007.8 |
| 20260504041542 | 13 | 360 | 19.3 | 25.7 | 0.00 | 0.03 | 0.00 | 36 | 1007.5 |
| 20260504040041 | 15 | 360 | 24.1 | 32.2 | 0.00 | 0.03 | 0.00 | 33 | 1007.3 |
| 20260504034547 | 15 | 360 | 22.5 | 27.4 | 0.00 | 0.03 | 0.00 | 31 | 1007.0 |
| 20260504033039 | 15 | 31 | 20.9 | 25.7 | 0.00 | 0.03 | 0.00 | 28 | 1006.7 |
| 20260504031542 | 17 | 360 | 16.1 | 24.1 | 0.00 | 0.03 | 0.00 | 25 | 1006.6 |
| 20260504030038 | 18 | 13 | 17.7 | 22.5 | 0.00 | 0.03 | 0.00 | 24 | 1006.4 |
| 20260504024540 | 17 | 26 | 14.5 | 19.3 | 0.00 | 0.03 | 0.00 | 26 | 1006.2 |
| 20260504023036 | 17 | 30 | 9.7 | 17.7 | 0.00 | 0.03 | 0.00 | 26 | 1006.3 |
| 20260504021541 | 18 | 26 | 12.9 | 17.7 | 0.00 | 0.03 | 0.00 | 24 | 1006.4 |
| 20260504020042 | 20 | 360 | 14.5 | 20.9 | 0.00 | 0.03 | 0.00 | 22 | 1006.2 |
| 20260504014540 | 21 | 360 | 19.3 | 24.1 | 0.00 | 0.03 | 0.00 | 21 | 1006.1 |
| 20260504013053 | 22 | 15 | 16.1 | 25.7 | 0.00 | 0.03 | 0.00 | 19 | 1006.1 |
| 20260504011542 | 23 | 338 | 11.3 | 20.9 | 0.00 | 0.03 | 0.00 | 18 | 1006.3 |
| 20260504010041 | 23 | 360 | 20.9 | 30.6 | 0.00 | 0.03 | 0.00 | 17 | 1006.2 |
| 20260504004540 | 23 | 360 | 19.3 | 33.8 | 0.00 | 0.03 | 0.00 | 17 | 1006.5 |
| 20260504003039 | 23 | 360 | 22.5 | 43.5 | 0.00 | 0.03 | 0.00 | 17 | 1006.6 |
| 20260504001540 | 23 | 360 | 29.0 | 45.1 | 0.00 | 0.03 | 0.00 | 17 | 1007.0 |
| 20260504000039 | 23 | 360 | 25.7 | 37.0 | 0.00 | 0.03 | 0.00 | 17 | 1006.9 |
| 20260503234541 | 23 | 360 | 24.1 | 38.6 | 0.00 | 0.03 | 0.00 | 17 | 1007.0 |
| 20260503233040 | 23 | 360 | 30.6 | 45.1 | 0.00 | 0.03 | 0.00 | 17 | 1007.1 |
| 20260503231538 | 23 | 360 | 12.9 | 53.1 | 0.00 | 0.03 | 0.00 | 17 | 1007.2 |
| 20260503230041 | 23 | 360 | 22.5 | 45.1 | 0.00 | 0.03 | 0.00 | 17 | 1007.4 |
| 20260503224534 | 23 | 360 | 27.4 | 37.0 | 0.00 | 0.03 | 0.00 | 17 | 1007.6 |
| 20260503223042 | 22 | 360 | 33.8 | 45.1 | 0.00 | 0.03 | 0.00 | 17 | 1007.6 |
| 20260503221551 | 22 | 360 | 33.8 | 46.7 | 0.00 | 0.03 | 0.00 | 16 | 1007.7 |
| 20260503220040 | 22 | 360 | 17.7 | 43.5 | 0.00 | 0.03 | 0.00 | 18 | 1007.8 |
| 20260503214541 | 22 | 360 | 32.2 | 43.5 | 0.00 | 0.03 | 0.00 | 18 | 1008.0 |
| 20260503213043 | 22 | 360 | 25.7 | 49.9 | 0.00 | 0.03 | 0.00 | 17 | 1008.3 |
| 20260503211535 | 22 | 360 | 25.7 | 43.5 | 0.00 | 0.03 | 0.00 | 18 | 1008.5 |
| 20260503210114 | 22 | 360 | 16.1 | 43.5 | 0.00 | 0.03 | 0.00 | 18 | 1008.6 |
| 20260503204541 | 22 | 360 | 29.0 | 53.1 | 0.00 | 0.03 | 0.00 | 19 | 1009.0 |
| 20260503203041 | 22 | 360 | 25.7 | 35.4 | 0.00 | 0.03 | 0.00 | 19 | 1009.0 |
| 20260503201537 | 21 | 360 | 30.6 | 57.9 | 0.00 | 0.03 | 0.00 | 21 | 1009.3 |
| 20260503200044 | 22 | 360 | 27.4 | 41.8 | 0.00 | 0.03 | 0.00 | 21 | 1009.4 |
| 20260503194543 | 21 | 360 | 20.9 | 30.6 | 0.00 | 0.03 | 0.00 | 22 | 1009.8 |
| 20260503193046 | 21 | 360 | 22.5 | 43.5 | 0.00 | 0.03 | 0.00 | 22 | 1010.1 |
| 20260503191603 | 21 | 360 | 27.4 | 40.2 | 0.00 | 0.03 | 0.00 | 22 | 1010.3 |
| 20260503190036 | 21 | 360 | 25.7 | 45.1 | 0.00 | 0.03 | 0.00 | 23 | 1010.6 |
| 20260503184537 | 20 | 360 | 24.1 | 35.4 | 0.00 | 0.03 | 0.00 | 23 | 1011.0 |
| 20260503183040 | 20 | 360 | 20.9 | 40.2 | 0.00 | 0.03 | 0.00 | 25 | 1011.2 |
| 20260503181546 | 20 | 360 | 25.7 | 38.6 | 0.00 | 0.03 | 0.00 | 26 | 1011.4 |
| 20260503180041 | 19 | 360 | 27.4 | 40.2 | 0.00 | 0.03 | 0.00 | 26 | 1011.5 |
| 20260503174545 | 19 | 360 | 29.0 | 37.0 | 0.00 | 0.03 | 0.00 | 28 | 1011.6 |
| 20260503173041 | 20 | 360 | 14.5 | 30.6 | 0.00 | 0.03 | 0.00 | 31 | 1011.7 |
| 20260503171539 | 19 | 360 | 16.1 | 29.0 | 0.00 | 0.03 | 0.00 | 32 | 1011.8 |